Wind_Speed
18 14 9 5 3 2 2 2 1 2 3 3 3 4 4 5 5 6 7 8 8 9 11 13 15 17 18 19 21 21 23 25
20 16 11 9 6 4 3 2 3 5 5 5 4 5 6 7 9 9 10 11 11 11 12 13 14 15 16 17 18 20 20 21
26 21 16 11 8 5 4 4 4 5 6 6 5 5 6 8 11 13 14 13 13 14 15 17 18 18 18 18 17 18 18 16
32 25 19 13 10 7 7 7 7 6 5 4 3 4 6 9 11 11 12 14 14 15 16 16 17 18 20 20 19 19 19 17
33 28 22 17 12 11 11 10 7 5 4 2 2 3 5 7 9 11 12 13 14 15 16 16 17 17 16 16 16 15 16 16
38 30 23 19 16 15 14 10 8 5 4 3 1 2 4 6 9 11 11 11 12 13 14 15 15 15 15 15 14 13 12 11
35 28 24 20 17 17 15 12 9 6 3 1 0 2 4 6 8 10 12 13 13 14 15 15 14 14 14 14 13 13 11 10
39 34 29 25 22 20 16 12 9 6 4 2 0 2 4 6 7 8 9 11 13 14 15 15 16 15 15 14 12 12 13 11
42 36 31 27 24 20 16 12 9 7 5 2 0 2 4 5 6 7 9 11 12 13 13 12 12 13 12 13 12 11 11 11
45 37 32 28 25 21 17 13 10 8 5 4 2 1 2 3 3 5 8 10 10 11 11 10 10 10 11 12 11 10 10 11
43 37 32 27 22 20 17 14 11 9 7 6 3 1 2 2 3 5 7 8 10 11 11 10 9 9 10 9 10 10 10 11
43 37 31 26 22 20 16 14 13 11 9 7 5 3 2 1 3 5 7 8 9 10 10 9 8 10 10 11 10 10 10 10
38 35 31 27 25 20 16 14 12 10 9 7 5 3 1 3 3 4 6 7 9 10 9 7 7 9 9 10 10 9 9 9
36 33 32 30 25 20 16 15 13 13 12 9 6 4 4 4 4 3 5 7 8 8 7 5 6 8 8 9 9 9 9 10
33 33 32 28 23 20 18 17 16 15 14 11 7 7 6 5 4 4 5 7 7 6 4 4 5 7 7 7 8 8 8 9
35 33 30 27 25 22 20 20 20 18 16 12 10 9 7 7 5 5 5 5 5 3 3 3 4 5 6 6 7 8 8 9
37 34 26 25 29 32 28 24 21 20 16 13 11 10 7 8 5 3 3 3 1 2 2 2 3 5 8 6 6 7 8 8
41 43 38 43 41 37 31 26 22 21 18 15 12 10 10 7 5 3 1 2 2 2 3 4 3 4 7 8 8 7 9 11
42 41 39 41 37 38 32 24 24 24 20 16 14 12 11 9 6 4 5 4 3 3 4 5 4 4 7 8 8 8 9 12
Wind_Direction
190 193 197 219 232 231 210 205 198 201 218 251 278 307 334 353 348 345 339 328 319 310 302 295 290 288 288 289 292 294 293 289
192 192 194 208 217 251 256 262 187 181 201 234 258 286 317 331 333 332 330 321 315 313 310 305 301 299 297 296 294 293 294 297
191 192 194 196 210 228 225 218 192 185 199 225 247 271 305 323 332 334 333 328 321 313 308 303 300 299 296 295 300 304 308 320
192 190 190 197 205 197 182 162 143 141 155 179 233 274 302 316 321 327 325 325 323 322 320 316 311 306 300 297 295 295 297 300
197 191 189 196 199 189 175 166 156 147 146 180 236 273 291 307 320 330 332 331 326 323 321 318 313 313 315 315 312 305 300 304
197 193 194 192 192 180 176 168 159 157 161 174 208 304 334 343 339 335 338 342 341 334 327 324 324 321 322 321 319 314 313 311
197 193 193 188 188 187 183 179 169 163 159 149 12 344 348 346 346 344 349 357 359 357 358 356 349 345 341 334 332 326 320 311
192 190 190 192 195 193 188 183 176 171 173 178 331 348 354 356 354 353 360 5 8 10 10 10 7 7 1 358 350 337 327 331
192 193 195 195 195 195 193 188 190 184 180 184 202 3 5 5 11 8 7 7 12 12 10 14 18 17 9 7 350 342 336 338
190 193 195 194 193 198 197 196 197 192 189 193 189 37 2 4 9 4 8 6 6 3 359 2 4 8 9 5 359 339 352 351
189 192 192 192 195 199 198 202 205 201 202 207 204 146 64 43 20 15 11 359 354 351 347 346 349 344 357 0 355 346 3 9
188 188 191 194 198 200 202 208 213 210 209 205 182 144 95 39 347 6 358 347 342 343 348 343 328 342 355 354 347 338 348 357
186 187 189 195 197 197 205 211 211 210 201 189 173 170 216 281 318 359 346 337 345 345 342 333 330 342 351 354 357 354 355 358
186 185 192 196 196 197 206 208 205 200 196 187 189 217 241 261 293 330 328 331 336 340 340 335 339 344 351 357 7 12 11 12
183 189 196 199 202 205 211 204 201 200 196 195 203 219 234 248 269 306 311 325 330 341 342 347 343 352 356 15 23 25 27 29
192 194 201 204 208 211 214 206 202 200 199 203 209 213 222 237 260 293 317 321 324 354 5 12 23 7 27 29 25 24 26 35
200 202 201 215 225 215 206 199 200 201 200 212 219 210 215 233 246 279 306 308 330 31 18 17 23 18 48 41 39 36 40 42
209 208 216 210 213 205 201 197 205 201 207 216 210 214 220 227 237 236 218 187 112 101 54 35 32 33 50 48 44 44 46 47
214 218 218 216 210 198 193 208 203 203 203 206 206 214 221 217 205 189 183 164 147 102 67 59 43 55 66 57 50 47 49 50
Height
1503 1504 1506 1507 1508 1508 1509 1508 1508 1508 1508 1508 1509 1509 1508 1508 1507 1507 1506 1505 1504 1503 1501 1500 1498 1496 1494 1492 1491 1489 1486 1484
1501 1502 1503 1505 1505 1505 1507 1506 1506 1507 1506 1506 1507 1507 1506 1506 1506 1505 1504 1504 1503 1501 1500 1498 1496 1493 1491 1488 1486 1484 1483 1480
1495 1498 1500 1502 1503 1504 1504 1505 1505 1505 1506 1506 1506 1506 1505 1504 1504 1503 1502 1501 1500 1499 1497 1496 1493 1491 1489 1486 1483 1481 1480 1479
1488 1493 1496 1500 1501 1501 1502 1503 1503 1504 1505 1505 1505 1505 1504 1503 1502 1502 1501 1500 1499 1497 1496 1494 1491 1489 1487 1484 1480 1477 1476 1477
1486 1489 1492 1496 1498 1499 1500 1501 1502 1502 1503 1504 1504 1504 1503 1502 1501 1501 1500 1499 1497 1496 1493 1491 1489 1487 1485 1481 1479 1475 1472 1472
1479 1486 1490 1494 1496 1497 1498 1499 1500 1501 1502 1503 1503 1502 1501 1500 1500 1500 1499 1498 1496 1494 1492 1490 1487 1485 1482 1480 1477 1476 1471 1470
1478 1485 1488 1490 1492 1494 1496 1497 1497 1499 1501 1501 1501 1501 1500 1500 1499 1499 1498 1497 1496 1494 1492 1489 1486 1483 1479 1479 1477 1477 1472 1468
1472 1477 1482 1486 1488 1491 1492 1494 1495 1497 1499 1500 1501 1500 1499 1498 1498 1499 1498 1496 1494 1493 1492 1489 1486 1482 1480 1478 1477 1477 1477 1466
1467 1473 1478 1481 1484 1487 1490 1491 1493 1495 1497 1498 1498 1499 1499 1498 1498 1500 1499 1497 1496 1496 1493 1490 1487 1484 1480 1477 1478 1476 1475 1468
1461 1470 1475 1479 1482 1485 1488 1489 1492 1492 1494 1495 1496 1498 1498 1498 1498 1498 1498 1497 1495 1496 1494 1490 1488 1484 1479 1477 1476 1479 1474 1469
1458 1466 1472 1477 1481 1484 1486 1488 1489 1490 1491 1493 1494 1496 1497 1497 1497 1497 1496 1497 1496 1497 1496 1492 1488 1487 1479 1478 1477 1477 1474 1469
1452 1462 1469 1475 1479 1482 1483 1486 1488 1489 1490 1492 1491 1492 1495 1496 1496 1494 1494 1496 1496 1496 1492 1492 1490 1484 1481 1478 1477 1476 1473 1470
1451 1459 1465 1470 1475 1478 1482 1484 1486 1487 1489 1490 1491 1492 1493 1495 1494 1493 1493 1495 1494 1493 1491 1490 1487 1483 1481 1479 1478 1476 1472 1470
1450 1458 1462 1467 1471 1475 1478 1482 1483 1484 1485 1488 1489 1493 1494 1495 1493 1493 1492 1492 1492 1492 1491 1489 1486 1483 1481 1480 1478 1475 1473 1470
1451 1457 1460 1464 1469 1472 1475 1479 1480 1482 1484 1486 1487 1491 1494 1494 1494 1492 1490 1491 1490 1490 1490 1487 1485 1483 1482 1480 1479 1476 1474 1471
1448 1453 1458 1461 1465 1470 1472 1475 1477 1478 1482 1485 1486 1489 1491 1494 1492 1491 1489 1490 1490 1489 1488 1487 1485 1483 1482 1481 1479 1477 1474 1472
1440 1445 1446 1457 1459 1462 1468 1474 1475 1477 1480 1485 1487 1488 1487 1492 1489 1487 1488 1490 1490 1488 1487 1486 1485 1484 1483 1482 1480 1478 1476 1473
1430 1433 1432 1435 1444 1455 1463 1468 1472 1474 1477 1482 1484 1487 1489 1489 1488 1487 1488 1491 1489 1488 1487 1486 1486 1485 1484 1482 1481 1479 1477 1474
1419 1424 1428 1435 1443 1451 1455 1462 1466 1472 1474 1477 1481 1486 1488 1487 1486 1486 1489 1489 1490 1488 1487 1487 1487 1485 1484 1484 1482 1480 1478 1476